DateTime,F1_A11,F1_S11,BsB_S11,BsG_S11,BsR_S11,BbsB_S11,BbsG_S11,BbsR_S11,BaB_A11,BaG_A11,BaR_A11,T_S11,U_S11,P_S11,T1_A11
2016-03-05T00:00:00Z,0000388,21000608,,,,,,,,,,25.5,00.0,0654.0,34.5
2016-03-05T00:01:00Z,0000388,21000608,,,,,,,,,,25.5,00.0,0654.0,34.5
2016-03-05T00:02:00Z,0000388,21000608,,,,,,,,,,25.5,00.0,0654.0,34.5
2016-03-05T00:03:00Z,0000388,61000608,,,,,,,,,,25.6,00.0,0654.0,34.5
2016-03-05T00:04:00Z,0000388,41000608,0000.39,-000.18,0000.14,0000.45,-000.03,0000.55,0000.02,-000.10,-000.03,25.6,00.0,0654.7,34.5
2016-03-05T00:05:00Z,0000388,01000608,-000.65,0000.18,0000.16,0000.34,0000.27,0000.35,0000.10,0000.07,-000.22,25.6,00.0,0654.7,34.5
2016-03-05T00:06:00Z,0000388,01000608,0000.19,-000.54,0000.60,-000.43,-000.02,0000.03,-000.11,-000.11,0000.08,25.6,00.0,0654.8,34.5
2016-03-05T00:07:00Z,0000388,01000608,0000.00,-001.18,-000.16,0000.26,-000.30,-000.26,0000.07,0000.01,0000.14,25.6,00.0,0654.7,34.5
2016-03-05T00:08:00Z,0000388,01000608,-000.67,0000.31,-000.23,-000.24,-000.05,-000.29,0000.05,0000.19,0000.01,25.7,00.0,0654.8,34.5
2016-03-05T00:09:00Z,0000388,01000608,-000.61,0000.18,0000.14,0000.27,0000.18,-000.15,0000.04,0000.02,0000.26,25.7,00.0,0654.7,34.5
2016-03-05T00:10:00Z,0000388,01000608,0000.84,-000.46,-000.04,0000.74,-000.10,0000.10,-000.06,0000.02,-000.18,25.6,00.0,0654.8,34.5
2016-03-05T00:11:00Z,0000388,01000608,-001.46,0000.11,0000.00,-000.50,-000.16,-000.18,0000.06,-000.11,0000.04,25.6,00.0,0654.8,34.5
2016-03-05T00:12:00Z,0000388,01000608,0000.31,-000.49,0000.18,-000.64,-000.24,-000.42,-000.21,0000.06,-000.11,25.7,00.0,0654.8,34.5
2016-03-05T00:13:00Z,0000388,01000608,0000.83,0000.41,-000.04,0000.26,0000.11,0000.21,0000.21,-000.03,0000.21,25.7,00.0,0654.8,34.5
2016-03-05T00:14:00Z,0000388,01000608,-000.65,-000.16,0000.32,0000.14,0000.30,0000.19,0000.06,0000.05,-000.11,25.7,00.0,0654.8,34.5
2016-03-05T00:15:00Z,0000388,01000608,0000.56,-000.62,0000.54,0000.21,0000.42,0000.47,0000.06,0000.09,-000.10,25.6,00.0,0654.8,34.5
2016-03-05T00:16:00Z,0000388,01000608,0000.42,0000.12,0000.00,0000.18,0000.14,-000.06,-000.31,-000.05,-000.05,25.7,00.0,0654.8,34.5
2016-03-05T00:17:00Z,0000388,01000608,-000.43,-000.58,-000.05,0000.58,-000.66,-000.23,0000.20,0000.21,0000.26,25.6,00.0,0654.8,34.5
2016-03-05T00:18:00Z,0000388,01000608,-000.54,-000.69,0000.02,-000.13,-000.21,-000.23,0000.12,-000.01,0000.07,25.6,00.0,0654.8,34.5
2016-03-05T00:19:00Z,0000388,01000608,-000.41,-000.91,0000.14,-000.06,-000.16,-000.26,-000.10,0000.06,-000.08,25.6,00.0,0654.8,34.5
2016-03-05T00:20:00Z,0000388,01000608,0000.02,-000.15,0000.53,-000.32,0000.06,0000.19,0000.13,0000.07,0000.12,25.6,00.0,0654.7,34.5
2016-03-05T00:21:00Z,0000388,01000608,-000.91,-000.44,0000.55,0000.40,0000.19,-000.27,-000.10,-000.13,-000.24,25.6,00.0,0654.7,34.5
2016-03-05T00:22:00Z,0000388,01000608,-000.30,-000.25,-000.27,0000.05,0000.29,-000.29,0000.02,0000.05,0000.23,25.6,00.0,0654.7,34.5
2016-03-05T00:23:00Z,0000388,01000608,0000.09,-000.25,-000.21,-000.51,0000.43,0000.08,-000.01,-000.07,-000.00,25.5,00.0,0654.7,34.5
2016-03-05T00:24:00Z,0000388,01000608,0000.78,-000.27,-000.23,0000.16,0000.08,-000.16,0000.21,-000.01,-000.26,25.6,00.0,0654.7,34.5
2016-03-05T00:25:00Z,0000388,01000608,0000.21,-000.42,0000.33,0000.21,0000.00,0000.00,-000.09,-000.05,0000.30,25.5,00.0,0654.7,34.5
2016-03-05T00:26:00Z,0000388,01000608,0000.76,-000.29,0000.05,-000.23,-000.03,-000.06,-000.13,-000.02,-000.02,25.5,00.0,0654.7,34.5
2016-03-05T00:27:00Z,0000388,01000608,0000.54,-000.02,-000.25,-000.35,0000.03,-000.05,0000.03,0000.11,-000.41,25.5,00.0,0654.8,34.5
2016-03-05T00:28:00Z,0000388,01000608,-000.16,-000.56,0000.39,-000.53,-000.16,0000.03,-000.05,-000.18,0000.14,25.5,00.0,0654.8,34.5
2016-03-05T00:29:00Z,0000388,01000608,0000.30,-000.68,0000.20,0000.13,-000.14,0000.06,0000.07,0000.11,-000.01,25.5,00.0,0654.8,34.5
2016-03-05T00:30:00Z,0000388,01000608,0000.41,0000.03,-000.07,0000.45,0000.27,-000.19,-000.14,-000.08,-000.00,25.5,00.0,0654.8,34.4
2016-03-05T00:31:00Z,0000388,01000608,-001.41,0000.00,0000.20,0000.11,0000.10,0000.10,-000.02,0000.10,0000.16,25.5,00.0,0654.8,34.4
2016-03-05T00:32:00Z,0000388,01000608,-000.50,-000.34,-000.02,-000.05,0000.27,0000.03,0000.23,0000.10,-000.22,25.5,00.0,0654.8,34.4
2016-03-05T00:33:00Z,0000388,01000608,0000.57,0000.44,-000.02,-000.10,0000.21,-000.11,-000.10,-000.21,0000.07,25.5,00.0,0654.8,34.4
2016-03-05T00:34:00Z,0000388,01000608,0000.06,-000.25,0000.16,0000.21,0000.13,0000.10,0000.05,0000.15,0000.03,25.5,00.0,0654.8,34.4
2016-03-05T00:35:00Z,0000388,01000608,-000.20,-000.51,-000.07,-000.37,0000.03,0000.03,0000.04,0000.04,0000.03,25.5,00.0,0654.7,34.4
2016-03-05T00:36:00Z,0000388,01000608,-000.50,0000.20,0000.32,-000.40,0000.08,-000.18,0000.01,0000.09,-000.02,25.5,00.0,0654.7,34.4
2016-03-05T00:37:00Z,0000388,01000608,0000.35,0000.07,0000.25,-000.50,-000.10,0000.03,-000.13,-000.06,0000.16,25.5,00.0,0654.7,34.4
2016-03-05T00:38:00Z,0000388,01000608,-000.54,-000.71,0000.04,-000.32,0000.16,0000.02,-000.00,-000.00,-000.13,25.5,00.0,0654.7,34.4
2016-03-05T00:39:00Z,0000388,01000608,-000.48,0000.56,-000.16,0000.35,-000.08,0000.05,0000.12,-000.09,0000.21,25.5,00.0,0654.6,34.4
2016-03-05T00:40:00Z,0000388,01000608,-000.09,-000.29,0000.23,-000.56,0000.03,0000.05,-000.00,0000.05,-000.28,25.5,00.0,0654.6,34.4
2016-03-05T00:41:00Z,0000388,01000608,0000.22,-000.13,0000.02,-000.90,-000.18,-000.13,-000.12,-000.13,0000.18,25.5,00.0,0654.5,34.4
2016-03-05T00:42:00Z,0000388,01000608,0000.04,0000.07,0000.28,-000.18,0000.29,0000.45,0000.18,0000.27,0000.02,25.5,00.0,0654.5,34.4
2016-03-05T00:43:00Z,0000388,01000608,-000.61,-000.31,-000.07,-000.34,0000.10,0000.00,-000.03,0000.03,0000.23,25.5,00.0,0654.5,34.4
2016-03-05T00:44:00Z,0000388,01000608,0000.81,-000.22,0000.35,-000.08,0000.42,-000.18,0000.04,-000.04,0000.03,25.5,00.0,0654.4,34.4
2016-03-05T00:45:00Z,0000388,01000608,0000.33,0000.14,0000.21,0000.42,0000.11,-000.08,0000.22,0000.10,-000.18,25.5,00.0,0654.4,34.4
2016-03-05T00:46:00Z,0000388,01000608,-000.08,-000.71,-000.06,0000.52,0000.42,0000.11,-000.16,-000.05,-000.00,25.5,00.0,0654.4,34.4
2016-03-05T00:47:00Z,0000388,01000608,0000.73,-000.76,0000.12,-000.24,-000.13,-000.11,0000.04,-000.06,0000.13,25.5,00.0,0654.4,34.4
2016-03-05T00:48:00Z,0000388,01000608,-000.55,-000.32,0000.39,-000.64,0000.05,0000.10,-000.00,-000.03,-000.22,25.5,00.0,0654.4,34.4
2016-03-05T00:49:00Z,0000388,01000608,-000.67,-000.16,-000.21,-000.18,-000.10,-000.26,0000.09,0000.06,0000.37,25.5,00.0,0654.3,34.4
2016-03-05T00:50:00Z,0000388,01000608,-000.35,-000.65,-000.20,0000.63,0000.14,0000.42,0000.01,0000.14,-000.69,25.5,00.0,0654.3,34.4
2016-03-05T00:51:00Z,0000388,01000608,0000.07,-000.55,0000.23,-000.66,0000.18,-000.13,-000.17,0000.01,0000.27,25.5,00.0,0654.3,34.4
2016-03-05T00:52:00Z,0000388,01000608,-000.74,-000.49,0000.27,0000.02,0000.56,-000.23,0000.10,-000.09,0000.09,25.5,00.0,0654.3,34.4
2016-03-05T00:53:00Z,0000388,01000608,-000.04,0000.07,-000.67,0000.89,-000.08,-000.15,0000.14,0000.03,-000.07,25.5,00.0,0654.3,34.4
2016-03-05T00:54:00Z,0000388,01000608,0000.69,0000.15,0000.18,0000.93,0000.02,-000.10,0000.00,-000.01,0000.13,25.5,00.0,0654.3,34.4
2016-03-05T00:55:00Z,0000388,01000608,-000.17,-000.35,-000.02,0000.35,-000.29,0000.02,-000.07,0000.11,-000.06,25.5,00.0,0654.3,34.4
2016-03-05T00:56:00Z,0000388,01000608,-000.26,0000.53,0000.16,0000.52,0000.34,-000.23,0000.01,-000.02,0000.36,25.5,00.0,0654.3,34.4
2016-03-05T00:57:00Z,0000388,41000608,,,,,,,,,,,,0654.2,34.4
2016-03-05T00:58:00Z,0000388,61000608,,,,,,,,,,25.3,00.0,0653.3,34.4
2016-03-05T00:59:00Z,0000388,21000608,,,,,,,,,,25.3,00.0,0653.3,34.4
2016-03-05T01:00:00Z,0000388,21000608,,,,,,,,,,25.3,00.0,0653.3,34.4
2016-03-05T01:01:00Z,0000388,21000608,,,,,,,,,,25.3,00.0,0653.3,34.4
2016-03-05T01:02:00Z,0000388,21000608,,,,,,,,,,25.3,00.0,0653.3,34.4
2016-03-05T01:03:00Z,0000388,61000608,,,,,,,,,,25.4,00.0,0653.3,34.4
2016-03-05T01:04:00Z,0000388,41000608,0000.64,0000.24,-000.13,-000.34,-000.51,-000.32,-000.08,-000.00,0000.09,25.4,00.0,0654.0,34.4
2016-03-05T01:05:00Z,0000388,01000608,0000.78,-000.07,0000.33,0000.31,-000.24,-000.08,0000.07,-000.05,-000.27,25.4,00.0,0654.2,34.4
2016-03-05T01:06:00Z,0000388,01000608,-000.12,0000.39,0000.67,-000.24,-000.29,-000.06,-000.02,-000.07,0000.14,25.4,00.0,0654.2,34.4
2016-03-05T01:07:00Z,0000388,01000608,0000.20,0000.42,0000.20,0000.24,-000.32,-000.27,-000.10,0000.12,-000.11,25.4,00.0,0654.2,34.4
2016-03-05T01:08:00Z,0000388,01000608,0000.44,0000.58,0000.21,-000.14,-000.26,0000.31,0000.03,-000.05,0000.21,25.4,00.0,0654.1,34.4
2016-03-05T01:09:00Z,0000388,01000608,-000.70,0000.49,0000.00,0000.23,-000.45,0000.27,-000.04,-000.02,-000.35,25.4,00.0,0654.1,34.4
2016-03-05T01:10:00Z,0000388,01000608,0000.32,0000.59,0000.25,0000.06,-000.45,-000.05,0000.23,0000.06,0000.38,25.4,00.0,0654.1,34.4
2016-03-05T01:11:00Z,0000388,01000608,0000.56,0000.42,-000.05,0000.18,-000.29,0000.42,-000.15,0000.07,0000.17,25.4,00.0,0654.1,34.4
2016-03-05T01:12:00Z,0000388,01000608,0000.11,0000.19,-000.03,0000.35,-000.02,-000.68,0000.04,0000.14,-000.16,25.3,00.0,0654.1,34.4
2016-03-05T01:13:00Z,0000388,01000608,0000.39,-000.04,0000.34,-000.13,-000.10,0000.02,-000.01,-000.16,-000.02,25.3,00.0,0654.1,34.4
2016-03-05T01:14:00Z,0000388,01000608,-000.36,0000.06,-000.03,0000.23,-000.32,-000.10,0000.19,0000.21,-000.03,25.4,00.0,0654.1,34.4
2016-03-05T01:15:00Z,0000388,01000608,0000.78,-000.06,0000.48,-000.47,-000.35,-000.02,0000.04,-000.14,0000.02,25.3,00.0,0654.1,34.4
2016-03-05T01:16:00Z,0000388,01000608,0000.56,0000.51,0000.15,0000.34,-000.11,0000.18,0000.05,-000.06,-000.11,25.3,00.0,0654.1,34.4
2016-03-05T01:17:00Z,0000388,01000608,-000.32,0000.58,0000.27,0000.06,0000.38,0000.03,-000.16,0000.11,0000.18,25.4,00.0,0654.1,34.4
2016-03-05T01:18:00Z,0000388,01000608,0000.56,-000.11,0000.19,-000.06,-000.14,0000.03,0000.09,-000.05,0000.24,25.3,00.0,0654.1,34.4
2016-03-05T01:19:00Z,0000388,01000608,0000.19,0000.26,0000.15,-000.16,0000.03,0000.11,0000.19,0000.08,-000.25,25.3,00.0,0654.1,34.4
2016-03-05T01:20:00Z,0000388,01000608,-000.04,0000.72,0000.48,0000.43,-000.21,0000.18,-000.04,-000.08,-000.19,25.3,00.0,0654.1,34.4
2016-03-05T01:21:00Z,0000388,01000608,0000.12,0000.87,0000.21,-000.27,0000.13,0000.13,-000.06,0000.28,0000.32,25.3,00.0,0654.2,34.4
2016-03-05T01:22:00Z,0000388,01000608,0000.79,0000.48,0000.36,-000.11,-000.08,0000.02,0000.03,-000.16,-000.02,25.3,00.0,0654.1,34.4
2016-03-05T01:23:00Z,0000388,01000608,0001.51,0000.32,0000.62,-000.31,-000.32,-000.08,-000.04,-000.09,-000.16,25.3,00.0,0654.1,34.4
2016-03-05T01:24:00Z,0000388,01000608,0000.90,0000.58,0000.60,-000.42,-000.43,0000.24,0000.18,0000.24,0000.18,25.3,00.0,0654.1,34.4
2016-03-05T01:25:00Z,0000388,01000608,0000.56,0000.95,0000.61,-000.32,-000.46,-000.31,-000.13,-000.04,-000.02,25.4,00.0,0654.1,34.4
2016-03-05T01:26:00Z,0000388,01000608,0001.14,0001.43,-000.03,-000.19,-000.13,-000.50,0000.10,0000.01,0000.14,25.3,00.0,0654.1,34.4
2016-03-05T01:27:00Z,0000388,01000608,0000.19,0000.69,0000.34,0000.16,-000.18,0000.42,0000.04,0000.19,0000.24,25.4,00.0,0654.1,34.4
2016-03-05T01:28:00Z,0000388,01000608,0000.61,0000.41,0000.33,-000.10,-000.03,-000.29,0000.08,-000.08,-000.26,25.4,00.0,0654.1,34.4
2016-03-05T01:29:00Z,0000388,01000608,0001.01,0001.30,0000.11,0000.11,0000.18,0000.32,0000.11,0000.13,0000.33,25.4,00.0,0654.0,34.4
2016-03-05T01:30:00Z,0000388,01000608,0001.26,0001.07,0000.31,-000.02,0000.11,0000.19,0000.05,0000.08,-000.20,25.4,00.0,0654.0,34.4
2016-03-05T01:31:00Z,0000388,01000608,-000.30,0000.62,0000.46,0000.13,-000.22,0000.11,0000.05,0000.09,0000.19,25.4,00.0,0654.0,34.4
2016-03-05T01:32:00Z,0000388,01000608,0001.16,0000.61,0000.40,-000.21,-000.29,0000.03,0000.16,-000.05,-000.08,25.4,00.0,0654.0,34.4
2016-03-05T01:33:00Z,0000388,01000608,0001.39,0000.71,0000.40,-000.11,-000.08,0000.32,0000.05,0000.05,0000.06,25.4,00.0,0654.0,34.4
2016-03-05T01:34:00Z,0000388,01000608,0001.91,0000.68,0000.28,-000.06,-000.13,-000.10,-000.03,0000.04,0000.14,25.4,00.0,0654.0,34.4
2016-03-05T01:35:00Z,0000388,01000608,0000.67,0001.13,-000.02,-000.26,0000.13,0000.11,-000.01,0000.12,-000.15,25.4,00.0,0653.9,34.4
2016-03-05T01:36:00Z,0000388,01000608,0000.81,0000.19,0000.48,-000.26,-000.05,0000.27,0000.10,0000.17,0000.01,25.4,00.0,0653.9,34.4
2016-03-05T01:37:00Z,0000388,01000608,0000.94,0000.60,0000.26,0000.39,0000.06,0000.06,0000.09,-000.15,0000.02,25.5,00.0,0653.9,34.4
2016-03-05T01:38:00Z,0000388,01000608,0000.99,0000.45,0000.55,0000.81,-000.22,0000.26,-000.10,0000.10,0000.07,25.5,00.0,0653.9,34.4
2016-03-05T01:39:00Z,0000388,01000608,0000.39,0000.66,0000.39,0000.00,-000.02,0000.24,0000.25,-000.08,0000.07,25.5,00.0,0653.9,34.4
2016-03-05T01:40:00Z,0000388,01000608,0001.46,0000.88,0000.10,-000.15,0000.08,0000.18,-000.09,0000.05,0000.10,25.5,00.0,0653.9,34.4
2016-03-05T01:41:00Z,0000388,01000608,0000.70,0000.78,0000.30,-000.24,-000.71,-000.08,0000.09,0000.23,-000.18,25.5,00.0,0653.9,34.4
2016-03-05T01:42:00Z,0000388,01000608,0001.04,0000.61,0000.43,-000.03,-000.29,0000.11,-000.19,-000.05,0000.39,25.5,00.0,0653.9,34.4
2016-03-05T01:43:00Z,0000388,01000608,0000.57,0000.57,0000.61,-000.16,-000.26,0000.03,0000.15,-000.02,-000.35,25.5,00.0,0653.9,34.4
2016-03-05T01:44:00Z,0000388,01000608,0000.98,0000.33,0000.65,0000.13,0000.27,0000.21,0000.06,-000.15,0000.02,25.5,00.0,0653.9,34.4
2016-03-05T01:45:00Z,0000388,01000608,0000.78,0000.81,0000.33,-000.48,0000.16,0000.11,0000.01,0000.10,0000.22,25.5,00.0,0653.8,34.4
2016-03-05T01:46:00Z,0000388,01000608,0000.41,0000.71,0000.34,0000.35,0000.03,-000.08,0000.07,0000.16,-000.02,25.5,00.0,0653.8,34.4
2016-03-05T01:47:00Z,0000388,01000608,0001.12,0000.95,0000.02,-000.16,0000.21,0000.26,0000.10,-000.02,0000.19,25.5,00.0,0653.9,34.4
2016-03-05T01:48:00Z,0000388,01000608,0001.52,0000.76,0000.63,0000.08,0000.02,0000.02,-000.01,0000.11,-000.23,25.5,00.0,0654.0,34.4
2016-03-05T01:49:00Z,0000388,01000608,0001.35,0000.21,0000.19,-000.18,0000.21,0000.00,0000.04,-000.10,0000.18,25.5,00.0,0653.9,34.4
2016-03-05T01:50:00Z,0000388,01000608,0000.75,0001.01,0000.62,0000.42,0000.08,0000.10,0000.05,-000.03,0000.04,25.5,00.0,0654.0,34.4
2016-03-05T01:51:00Z,0000388,01000608,0000.61,0000.26,0000.88,-000.81,-000.30,0000.42,-000.02,0000.30,0000.12,25.5,00.0,0653.9,34.4
2016-03-05T01:52:00Z,0000388,01000608,0001.35,0001.50,0000.34,-000.24,-000.19,0000.00,0000.08,-000.13,-000.01,25.5,00.0,0653.9,34.4
2016-03-05T01:53:00Z,0000388,01000608,0001.09,0001.24,0000.73,0000.53,0000.00,0000.16,-000.15,-000.04,-000.16,25.5,00.0,0653.9,34.4
2016-03-05T01:54:00Z,0000388,01000608,0000.99,0000.55,0000.19,0000.13,-000.21,0000.15,0000.03,0000.03,0000.06,25.5,00.0,0653.9,34.4
2016-03-05T01:55:00Z,0000388,01000608,0000.81,0000.57,0000.37,0000.35,-000.26,-000.06,0000.14,0000.14,-000.03,25.5,00.0,0653.9,34.4
2016-03-05T01:56:00Z,0000388,01000608,0001.58,0000.71,0000.59,0000.35,0000.10,0000.23,-000.07,-000.08,0000.12,25.5,00.0,0653.9,34.4
2016-03-05T01:57:00Z,0000388,41000608,,,,,,,,,,,,0653.8,34.4
2016-03-05T01:58:00Z,0000388,61000608,,,,,,,,,,25.5,00.0,0653.1,34.4
2016-03-05T01:59:00Z,0000388,21000608,,,,,,,,,,25.5,00.0,0653.1,34.4
2016-03-05T02:00:00Z,0000388,21000608,,,,,,,,,,25.5,00.0,0653.1,34.5
2016-03-05T02:01:00Z,0000388,21000608,,,,,,,,,,25.5,00.0,0653.1,34.5
2016-03-05T02:02:00Z,0000388,21000608,,,,,,,,,,25.5,00.0,0653.1,34.5
2016-03-05T02:03:00Z,0000388,61000608,,,,,,,,,,25.5,00.0,0653.1,34.5
2016-03-05T02:04:00Z,0000388,41000608,0000.49,-000.43,0000.18,-000.02,0000.47,0000.15,-000.01,0000.07,-000.03,25.6,00.0,0653.8,34.5
2016-03-05T02:05:00Z,0000388,01000608,0000.59,0000.16,0000.14,0000.02,0000.29,0000.06,-000.02,0000.06,0000.15,25.6,00.0,0653.9,34.5
2016-03-05T02:06:00Z,0000388,01000608,0001.10,0000.05,0000.30,-000.26,0000.26,0000.44,0000.11,0000.01,0000.08,25.6,00.0,0653.8,34.5
2016-03-05T02:07:00Z,0000388,01000608,0000.41,0000.42,0000.07,-000.85,0000.11,0000.11,0000.09,0000.03,0000.02,25.7,00.0,0653.8,34.5
2016-03-05T02:08:00Z,0000388,01000608,0000.36,0000.96,0000.59,-000.21,0000.63,0000.40,-000.08,-000.02,-000.03,25.6,00.0,0653.8,34.5
2016-03-05T02:09:00Z,0000388,01000608,0000.57,0000.02,0000.71,0000.31,-000.13,0000.10,0000.04,0000.26,0000.18,25.7,00.0,0653.8,34.5
2016-03-05T02:10:00Z,0000388,01000608,0000.94,0000.59,0000.39,0000.08,0000.31,-000.23,0000.07,-000.11,-000.26,25.7,00.0,0653.8,34.5
2016-03-05T02:11:00Z,0000388,01000608,0001.07,0000.37,0000.06,-000.42,0000.03,0000.16,0000.06,-000.00,0000.19,25.7,00.0,0653.7,34.5
2016-03-05T02:12:00Z,0000388,01000608,-000.23,0000.45,0000.51,0000.18,0000.35,0000.34,-000.01,0000.18,0000.18,25.7,00.0,0653.7,34.5
2016-03-05T02:13:00Z,0000388,01000608,0001.04,-000.06,0000.58,-000.27,-000.02,0000.13,0000.06,-000.10,-000.29,25.7,00.0,0653.7,34.5
2016-03-05T02:14:00Z,0000388,01000608,0001.02,0000.89,0000.43,0000.29,0000.05,0000.47,0000.09,0000.12,0000.38,25.7,00.0,0653.7,34.5
2016-03-05T02:15:00Z,0000388,01000608,0001.28,0000.22,0000.62,-000.23,-000.11,0000.21,0000.11,0000.06,-000.26,25.7,00.0,0653.6,34.5
2016-03-05T02:16:00Z,0000388,01000608,0001.11,-000.07,0000.53,-000.16,-000.55,0000.24,0000.04,0000.07,0000.40,25.7,00.0,0653.6,34.5
2016-03-05T02:17:00Z,0000388,01000608,0000.76,0000.14,0000.31,0000.35,0000.18,0000.15,0000.01,0000.12,-000.00,25.7,00.0,0653.6,34.5
2016-03-05T02:18:00Z,0000388,01000608,0001.07,0000.50,0000.60,-000.35,0000.34,0000.10,0000.07,0000.09,0000.05,25.7,00.0,0653.6,34.5
2016-03-05T02:19:00Z,0000388,01000608,0000.90,0000.16,0000.06,-000.48,0000.16,0000.11,0000.03,-000.11,0000.26,25.7,00.0,0653.6,34.5
2016-03-05T02:20:00Z,0000388,01000608,-000.02,-000.58,-000.17,0000.34,0000.10,0000.05,0000.11,0000.15,-000.12,25.7,00.0,0653.6,34.5
2016-03-05T02:21:00Z,0000388,01000608,0000.19,0000.29,0000.99,-000.08,0000.16,0000.23,0000.00,0000.17,-000.13,25.7,00.0,0653.6,34.5
2016-03-05T02:22:00Z,0000388,01000608,0001.60,0000.52,0000.82,-000.23,0000.19,-000.08,0000.14,-000.07,-000.17,25.7,00.0,0653.6,34.5
2016-03-05T02:23:00Z,0000388,01000608,0000.51,-000.26,0000.21,-000.34,-000.02,0000.08,0000.04,0000.12,0000.63,25.8,00.0,0653.6,34.5
2016-03-05T02:24:00Z,0000388,01000608,0000.16,0000.63,0000.42,-000.60,0000.21,0000.02,0000.06,0000.19,-000.28,25.7,00.0,0653.6,34.5
2016-03-05T02:25:00Z,0000388,01000608,0000.40,-000.28,0000.69,-000.56,0000.11,0000.52,0000.07,-000.06,0000.31,25.7,00.0,0653.6,34.5
2016-03-05T02:26:00Z,0000388,01000608,0000.71,0000.69,0000.24,-000.18,0000.05,0000.23,-000.11,0000.03,-000.32,25.7,00.0,0653.6,34.5
2016-03-05T02:27:00Z,0000388,01000608,0000.86,0000.99,0000.99,-000.35,0000.43,0000.27,0000.18,-000.04,0000.33,25.7,00.0,0653.6,34.5
2016-03-05T02:28:00Z,0000388,01000608,0000.67,0000.55,-000.23,0000.82,0000.16,0000.19,-000.16,0000.28,-000.19,25.7,00.0,0653.6,34.5
2016-03-05T02:29:00Z,0000388,01000608,0000.99,0000.13,0000.41,-000.02,-000.14,0000.02,0000.20,-000.11,0000.08,25.7,00.0,0653.6,34.5
2016-03-05T02:30:00Z,0000388,01000608,0000.82,0000.36,0000.51,-000.35,0000.14,0000.15,-000.04,0000.14,0000.25,25.7,00.0,0653.6,34.4
2016-03-05T02:31:00Z,0000388,01000608,0000.43,0000.29,0000.07,-000.61,0000.16,0000.08,0000.20,0000.05,-000.05,25.7,00.0,0653.6,34.4
2016-03-05T02:32:00Z,0000388,01000608,0000.16,0000.22,0000.34,0000.29,0000.27,-000.13,0000.06,0000.02,-000.19,25.7,00.0,0653.5,34.4
2016-03-05T02:33:00Z,0000388,01000608,0001.22,-000.12,0000.06,-000.15,0000.26,-000.21,0000.04,0000.01,0000.13,25.7,00.0,0653.5,34.4
2016-03-05T02:34:00Z,0000388,01000608,0000.54,0000.57,0000.16,0000.10,0000.18,-000.08,0000.18,0000.04,0000.02,25.7,00.0,0653.5,34.4
2016-03-05T02:35:00Z,0000388,01000608,0000.45,-000.32,0000.48,0000.50,-000.37,0000.16,-000.08,0000.14,0000.30,25.7,00.0,0653.5,34.4
2016-03-05T02:36:00Z,0000388,01000608,0000.76,0000.38,0000.74,0000.27,0000.43,0000.39,0000.03,-000.07,-000.34,25.7,00.0,0653.5,34.4
2016-03-05T02:37:00Z,0000388,01000608,0000.17,0000.68,0000.73,-000.65,0000.22,0000.00,-000.05,0000.03,0000.45,25.7,00.0,0653.5,34.4
2016-03-05T02:38:00Z,0000388,01000608,-000.66,-000.08,-000.04,-000.61,0000.21,-000.15,0000.19,-000.12,-000.29,25.7,00.0,0653.5,34.4
2016-03-05T02:39:00Z,0000388,01000608,0000.68,0000.76,0000.13,-000.15,0000.24,-000.03,-000.12,0000.11,-000.06,25.7,00.0,0653.4,34.4
2016-03-05T02:40:00Z,0000388,01000608,0000.60,0000.02,0000.19,-000.63,0000.00,0000.13,0000.25,0000.07,0000.12,25.7,00.0,0653.4,34.4
2016-03-05T02:41:00Z,0000388,01000608,0001.29,0000.50,0000.92,-000.18,0000.39,0000.29,-000.03,0000.10,-000.05,25.7,00.0,0653.4,34.4
2016-03-05T02:42:00Z,0000388,01000608,-000.19,0000.06,0000.02,-000.68,0000.08,0000.19,0000.16,0000.11,0000.12,25.7,00.0,0653.4,34.4
2016-03-05T02:43:00Z,0000388,01000608,0001.00,0000.41,0000.47,0000.29,-000.50,0000.16,-000.12,0000.04,0000.27,25.7,00.0,0653.4,34.4
2016-03-05T02:44:00Z,0000388,01000608,0000.43,0000.04,0000.57,-000.92,0000.02,0000.18,0000.06,-000.02,-000.14,25.7,00.0,0653.4,34.4
2016-03-05T02:45:00Z,0000388,01000608,-000.19,0000.13,0000.14,-000.19,-000.34,0000.10,-000.04,-000.01,-000.16,25.7,00.0,0653.4,34.4
2016-03-05T02:46:00Z,0000388,01000608,0000.45,0000.61,0000.27,0000.19,0000.03,0000.08,0000.31,-000.06,0000.26,25.7,00.0,0653.4,34.4
2016-03-05T02:47:00Z,0000388,01000608,0000.87,0000.23,-000.12,-000.76,0000.13,-000.13,-000.25,0000.11,-000.24,25.7,00.0,0653.3,34.4
2016-03-05T02:48:00Z,0000388,01000608,0000.88,0000.16,0000.34,0000.06,0000.10,0000.08,0000.12,-000.02,-000.01,25.7,00.0,0653.3,34.4
2016-03-05T02:49:00Z,0000388,01000608,0000.53,0000.00,0000.32,-000.39,0000.11,0000.45,0000.13,0000.14,-000.02,25.7,00.0,0653.4,34.4
2016-03-05T02:50:00Z,0000388,01000608,-000.17,0000.04,0000.12,-000.19,0000.40,-000.08,-000.11,0000.09,0000.45,25.6,00.0,0653.3,34.4
2016-03-05T02:51:00Z,0000388,01000608,0000.65,0000.44,0000.02,0000.31,0000.14,0000.08,0000.09,-000.01,-000.07,25.6,00.0,0653.4,34.4
2016-03-05T02:52:00Z,0000388,01000608,0000.77,-000.23,0000.71,-000.82,0000.31,-000.10,0000.02,0000.09,-000.12,25.6,00.0,0653.3,34.4
2016-03-05T02:53:00Z,0000388,01000608,0000.26,-000.02,0000.79,-000.23,0000.27,0000.11,0000.12,0000.08,0000.16,25.6,00.0,0653.3,34.4
2016-03-05T02:54:00Z,0000388,01000608,0000.79,0000.48,0000.59,-000.19,-000.08,0000.37,0000.03,-000.08,0000.11,25.6,00.0,0653.3,34.4
2016-03-05T02:55:00Z,0000388,01000608,0000.25,-000.29,0001.19,0000.44,0000.02,0000.34,0000.06,0000.14,-000.31,25.6,00.0,0653.3,34.4
2016-03-05T02:56:00Z,0000388,01000608,0000.19,-000.15,0000.04,0000.32,0000.32,-000.16,-000.02,-000.05,0000.19,25.6,00.0,0653.2,34.4
2016-03-05T02:57:00Z,0000380,41000600,,,,,,,,,,,,0653.2,34.4
2016-03-05T02:58:00Z,0000380,61000600,,,,,,,,,,25.5,00.0,0652.5,34.4
2016-03-05T02:59:00Z,0000380,21000600,,,,,,,,,,25.5,00.0,0652.4,34.4
2016-03-05T03:00:00Z,0000380,21000600,,,,,,,,,,25.5,00.0,0652.4,34.4
2016-03-05T03:01:00Z,0000380,21000600,,,,,,,,,,25.5,00.0,0652.4,34.4
2016-03-05T03:02:00Z,0000380,21000600,,,,,,,,,,25.5,00.0,0652.4,34.4
2016-03-05T03:03:00Z,0000380,61000600,,,,,,,,,,25.6,00.0,0652.4,34.4
2016-03-05T03:04:00Z,0000380,41000600,0000.23,0000.42,0000.01,-000.06,-000.10,0000.03,0000.14,-000.09,0000.12,25.6,00.0,0653.2,34.4
2016-03-05T03:05:00Z,0000380,01000600,0000.49,-000.18,0000.35,0000.56,-000.29,-000.13,-000.09,0000.33,-000.21,25.6,00.0,0653.2,34.4
2016-03-05T03:06:00Z,0000380,01000600,0001.01,0001.12,0000.18,-000.19,0000.16,0000.19,0000.24,-000.21,0000.04,25.5,00.0,0653.2,34.4
2016-03-05T03:07:00Z,0000380,01000600,0000.63,0000.17,0000.69,-000.19,0000.19,0000.06,-000.04,0000.03,0000.13,25.5,00.0,0653.3,34.4
2016-03-05T03:08:00Z,0000380,01000600,-000.52,0000.00,0000.04,-000.13,0000.31,-000.02,0000.03,0000.09,-000.27,25.5,00.0,0653.2,34.4
2016-03-05T03:09:00Z,0000380,01000600,0000.78,0000.37,0000.90,0000.24,-000.42,0000.50,-000.19,-000.01,0000.16,25.5,00.0,0653.2,34.4
2016-03-05T03:10:00Z,0000380,01000600,0001.00,0000.57,0000.34,-000.42,0000.18,0000.16,0000.12,0000.06,0000.11,25.5,00.0,0653.2,34.4
2016-03-05T03:11:00Z,0000380,01000600,-001.19,0000.04,0000.44,0000.23,0000.02,0000.34,0000.19,-000.03,-000.13,25.5,00.0,0653.2,34.4
2016-03-05T03:12:00Z,0000380,01000600,0000.44,-000.31,0000.35,-000.47,-000.05,-000.03,-000.06,0000.04,0000.18,25.5,00.0,0653.2,34.4